Погода в Ряжске

Хотите узнать прогноз погоды в Ряжске? Тогда Вам сюда: Погода в Ряжске

Поиск расширенной информации на нашем сайте:

Полезная информация:

Новости сайта



02.01.2020
Опубликован Долгосрочный прогноз погоды по городам России и ближнего зарубежья на январь 2020 года.
Карты: Прогноз на январь и февраль 2020 года, Сравнение прогнозируемой аномалии приземной температуры воздуха на январь 2020 года по разным моделям.




Погода в Ряжске - сегодня

Время (UTC), дата Ветер
(°,м/с) 
Видим.   Явления Облачность Т
(°С)
Тd
(°С)
f(%) Тe
(°С)
Pmin
(гПа)
dP
(гПа)
Po
(мм)
O2
(г/м3)
Тmin Tmax R s Состояние
почвы
12 03.03.21 310 (СЗ) 4{11}  10 км    ясно 
+0.9 -7.9 52 -1  1015.1  0.4  749  302           
15 03.03.21 250 (З) 10 км    1/0 верхняя 
[Ci sp]
+0.4 -5.1 67 1014.2  -0.9  749  302    +1.5       
18 03.03.21 260 (З) 10 км    9/0 средняя 
[Ac und]
+0.5 -3.7 73 -1  1013.2  -1  748  301           
21 03.03.21 250 (З) 10 км    9/0 средняя 
[Ac und]
-0.6 -4.4 75 -1  1011.4  -1.8  747  302           
00 04.03.21 250 (З) 10 км    10/0 средняя 
[Ac As]
+0.3 -3.5 76 -1  1009  -2.3  745  300           
03 04.03.21 250 (З) 5-11{11}  10 км    9/0 средняя 
[As trans]
+0 -1.8 88 -3  1006.8  -2.3  743  300  -1.5      33  равномерный
мокрый или
старый снег
100% 
06 04.03.21 240 (ЮЗ) 3{12}  10 км    10/0 средняя 
[As op]
+1.3 -2.2 77 1004.7  -1.9  742  298           
09 04.03.21 230 (ЮЗ) 5-11{11}  10 км  {снег}  10/0 средняя 
[Ac As]
+2.3 -2.6 70 1002.3  -2.3  740  296           
12 04.03.21 260 (З) 6-12{12}  10 км  {снег}  10/10 600 м 
[Sc]
+2.2 -2.2 73 -1  1001.3  -1  739  296           
15 04.03.21 260 (З) 3{12}  10 км    10/3 600 м средняя 
[Sc|Ac As]
+0.9 -2.4 79 -1  1000.9  -0.5  739  297    +3.3  0.0     
18 04.03.21 260 (З) 10 км    10/3 600 м средняя 
[Sc|Ac As]
-0.3 -2.6 84 -2  1000.9  -0.1  739  298           
21 04.03.21 260 (З) 10 км    10/0 средняя 
[As op]
-0.7 -2.6 87 -3  1000.2  -0.7  738  299           
00 05.03.21 320 (СЗ) 4000 м  слаб. снег  10/0 средняя 
[As op]
-0.9 -1.9 93 -3  1001  0.8  739  299           
03 05.03.21 330 (СЗ) 10 км  {снег}  10/0 средняя 
[Ac As]
-2.3 -3.9 89 -3  1004.1  2.9  741  302  -2.3    0.2  32  равномерный
сухой снег
100% 
06 05.03.21 310 (СЗ) 10 км  {снег}  ясно 
-3 -5.4 83 -5  1006.8  2.7  743  303  -3.8         
09 05.03.21 360 (С) 10 км    3/3 1000 м 
[Sc]
-1 -6.1 68 -2  1008.5  1.8  744  302           
12 05.03.21 300 (СЗ) 10 км    3/3 1000 м 
[Sc]
+0.6 -8.8 49 1009.7  1.2  745  301           
15 05.03.21 330 (СЗ) 4000 м  в посл. час снег  10/10 300 м 
[St]
-2.5 -3.1 96 -2  1011.4  1.6  747  304    +0.7  0.6     
18 05.03.21 тихо ()   4000 м  дымка{снег}  8/8 600 м 
[Sc]
-5.5 -5.9 97 -6  1013.4  1.7  748  308           
21 05.03.21 тихо ()   4000 м  дымка  ясно 
-8.4 -8.7 98 -8  1015  1.4  749  312           
00 06.03.21 тихо ()   4000 м  дымка  ясно 
-11.9 -12.4 96 -12  1015.8  0.6  749  317           
03 06.03.21 тихо ()   4000 м  дымка  4/0 верхняя 
[Ci sp]
-13.4 -13.9 96 -13  1015.5  -0.4  749  319  -15.4    0.2  33  равномерный
сухой снег
100% 
06 06.03.21 тихо ()   4000 м  дымка  9/3 600 м средняя, верхняя 
[Sc|Ac trans|Ci sp]
-10.3 -10.7 97 -10  1016.1  0.8  750  315  -15.8         
09 06.03.21 340 (С) 10 км  {снег}  8/0 средняя, верхняя 
[Ac trans|Ci sp]
-5.1 -6.7 89 -6  1015.7  -0.1  750  308           
12 06.03.21 310 (СЗ) 10 км  {ливн. осадки, снег}  8/6 1000 м средняя 
[Sc|Ac trans]
-4 -7.9 74 -6  1015.6  750  307           
Время (UTC), дата Ветер
(°,м/с) 
Видим.   Явления Облачность Т
(°С)
Тd
(°С)
f(%) Тe
(°С)
Pmin
(гПа)
dP
(гПа)
Po
(мм)
O2
(г/м3)
Тmin Tmax R s Состояние
почвы

Для получения пояснительной информации подведите курсор к названию столбца.

ПОГОДА в Ряжске - архив

Всё, что Вы хотите узнать о погоде в Ряжске - удобно и подробно!

Выберите нужную дату (начиная с 1 января 2019* года) и нажмите кнопку "Найти".
Будут отображены архивные сводки погоды по пункту Ряжск, начиная с указанной даты.


Отображать данные в формате CSV (для использования в таблицах Excel)


Внимание! Наш архив погоды предназначен исключительно для личного некоммерческого использования в познавательных целях. Если Вам необходимы официальные справки о состоянии погоды (для производственных, юридических, коммерческих и т.п. целей), обращайтесь в органы Росгидромета.

*Примечание: данная дата относится к архиву по метеостанциям СССР (Россия, СНГ, Балтия).
Архив по метеостанциям Зарубежной Европы и Азии (кроме Китая) хранится 10 дней, по другим регионам земного шара (Китай, Африка, Америка, Австралия, Океания) - 1 день.

Ряжск - район местоположения метеостанции


Название, широта, долгота, высота метеостанции:
Ряжск 53.7°ш. 40.1°д. 127 м над ур. моря [Российская Федерация]

Дополнительная информация

В oтличие oт бoльшинства пoгoдных сайтoв мы публикуем пoдрoбную метеoинфoрмацию в детальнoм прoфессиoнальнoм фoрмате.

Характеристики температуры и влажнoсти вoздуха измеряются на высoте 2 м в тени вдали oт зданий и деревьев.
Скoрoсть ветра измеряется на высoте 10 м (на урoвне рoста челoвека скoрoсть ветра ниже в 1.5-2 раза). Если метеoстанция нахoдится в гoрoде или в лесу, тo скoрoсть ветра занижена на 2-4 м/с пo сравнению с oткрытым местoм. Скoрoсть ветра над акватoриями крупных рек и oзёр, а также на вершинах хoлмoв на 2-5 м/с выше, чем в oбычных услoвиях.
Атмoсфернoе давление в разных тoчках местнoсти мoжет значительнo oтличаться oт давления на метеoстанции, в зависимoсти oт услoвий рельефа (при пoдъёме на 10 м давление пoнижается примернo на 1 мм рт.ст.).